TimeCDT,TemperatureF,Dew PointF,Humidity,Sea Level PressureIn,VisibilityMPH,Wind Direction,Wind SpeedMPH,Gust SpeedMPH,PrecipitationIn,Events,Conditions,WindDirDegrees,DateUTC
12:15 AM,71.6,64.4,78,30.03,10.0,ESE,9.2,-,N/A,,Unknown,110,2013-07-26 05:15:00
12:35 AM,71.6,64.4,78,30.01,10.0,SE,10.4,-,N/A,Thunderstorm,Unknown,130,2013-07-26 05:35:00
12:55 AM,69.8,64.4,83,30.00,10.0,SE,10.4,-,N/A,Thunderstorm,Unknown,140,2013-07-26 05:55:00
1:15 AM,71.6,66.2,83,30.00,10.0,SE,12.7,-,N/A,,Unknown,140,2013-07-26 06:15:00
1:35 AM,69.8,66.2,88,30.00,7.0,SE,3.5,-,0.03,Rain,Light Rain,140,2013-07-26 06:35:00
1:55 AM,69.8,66.2,88,29.98,10.0,SE,12.7,-,0.03,,Unknown,140,2013-07-26 06:55:00
2:15 AM,71.6,68.0,88,29.98,10.0,SSE,15.0,20.7,N/A,,Unknown,150,2013-07-26 07:15:00
2:35 AM,71.6,68.0,88,29.96,10.0,SSE,18.4,31.1,0.01,,Unknown,150,2013-07-26 07:35:00
2:55 AM,71.6,66.2,83,29.96,10.0,SSE,19.6,26.5,0.01,Thunderstorm,Unknown,150,2013-07-26 07:55:00
3:15 AM,69.8,68.0,94,29.95,10.0,SSE,17.3,24.2,N/A,Thunderstorm,Unknown,160,2013-07-26 08:15:00
3:35 AM,69.8,68.0,94,29.98,5.0,South,11.5,-,0.14,Rain-Thunderstorm,Heavy Thunderstorms and Rain,180,2013-07-26 08:35:00
3:55 AM,69.8,68.0,94,29.98,3.0,South,11.5,-,0.36,Rain-Thunderstorm,Light Thunderstorms and Rain,190,2013-07-26 08:55:00
4:15 AM,69.8,68.0,94,29.99,10.0,NNE,9.2,26.5,N/A,Thunderstorm,Unknown,30,2013-07-26 09:15:00
4:35 AM,69.8,66.2,88,29.99,10.0,ENE,6.9,-,N/A,Thunderstorm,Unknown,60,2013-07-26 09:35:00
4:55 AM,69.8,66.2,88,29.99,7.0,East,9.2,-,0.02,Rain-Thunderstorm,Rain,80,2013-07-26 09:55:00
5:15 AM,68.0,66.2,94,29.99,5.0,ENE,10.4,-,0.07,Rain,Heavy Rain,60,2013-07-26 10:15:00
5:35 AM,68.0,64.4,88,29.99,7.0,East,9.2,-,0.10,Rain,Light Rain,80,2013-07-26 10:35:00
5:55 AM,68.0,64.4,88,29.98,10.0,East,10.4,-,0.10,,Unknown,100,2013-07-26 10:55:00
6:15 AM,68.0,64.4,88,29.98,10.0,ESE,8.1,-,N/A,,Unknown,110,2013-07-26 11:15:00
6:35 AM,68.0,64.4,88,29.99,10.0,East,6.9,-,N/A,,Unknown,100,2013-07-26 11:35:00
6:55 AM,68.0,64.4,88,30.00,10.0,ENE,3.5,-,N/A,,Unknown,70,2013-07-26 11:55:00
7:15 AM,69.8,64.4,83,30.00,10.0,East,3.5,-,N/A,,Unknown,90,2013-07-26 12:15:00
7:35 AM,69.8,66.2,88,30.00,10.0,Calm,Calm,-,N/A,,Unknown,0,2013-07-26 12:35:00
7:55 AM,69.8,66.2,88,30.00,10.0,Calm,Calm,-,N/A,,Unknown,0,2013-07-26 12:55:00
8:15 AM,69.8,66.2,88,30.00,10.0,North,3.5,-,N/A,,Unknown,350,2013-07-26 13:15:00
8:35 AM,69.8,68.0,94,30.00,7.0,North,3.5,-,0.02,Rain,Light Rain,360,2013-07-26 13:35:00
8:55 AM,69.8,68.0,94,30.02,10.0,NNW,11.5,-,0.02,Rain,Rain,340,2013-07-26 13:55:00
9:15 AM,69.8,68.0,94,30.02,10.0,NNW,10.4,-,N/A,,Unknown,340,2013-07-26 14:15:00
9:35 AM,69.8,68.0,94,30.03,10.0,North,12.7,-,N/A,,Unknown,350,2013-07-26 14:35:00
9:55 AM,71.6,68.0,88,30.03,10.0,North,10.4,-,N/A,,Unknown,350,2013-07-26 14:55:00
10:15 AM,69.8,68.0,94,30.03,5.0,North,13.8,18.4,N/A,,Mist,350,2013-07-26 15:15:00
10:35 AM,71.6,68.0,88,30.03,10.0,North,13.8,-,N/A,,Unknown,360,2013-07-26 15:35:00
10:55 AM,71.6,66.2,83,30.04,10.0,North,15.0,-,N/A,,Unknown,360,2013-07-26 15:55:00
11:15 AM,71.6,68.0,88,30.05,7.0,North,15.0,21.9,N/A,,Unknown,10,2013-07-26 16:15:00
11:35 AM,71.6,68.0,88,30.05,4.0,North,18.4,-,0.01,,Mist,10,2013-07-26 16:35:00
11:55 AM,71.6,68.0,88,30.06,10.0,NNE,16.1,20.7,0.01,,Unknown,20,2013-07-26 16:55:00
12:15 PM,73.4,66.2,78,30.06,10.0,NNE,16.1,-,N/A,,Unknown,20,2013-07-26 17:15:00
12:35 PM,78.8,64.4,61,30.05,10.0,North,19.6,24.2,N/A,,Unknown,10,2013-07-26 17:35:00
12:55 PM,77.0,64.4,65,30.06,10.0,NNE,17.3,-,N/A,,Unknown,20,2013-07-26 17:55:00
1:15 PM,80.6,64.4,58,30.05,10.0,NNE,18.4,26.5,N/A,,Unknown,30,2013-07-26 18:15:00
1:35 PM,80.6,62.6,54,30.05,10.0,NNE,17.3,-,N/A,,Unknown,20,2013-07-26 18:35:00
1:55 PM,80.6,62.6,54,30.06,10.0,NNE,16.1,24.2,N/A,,Unknown,20,2013-07-26 18:55:00
2:15 PM,82.4,62.6,51,30.06,10.0,NNE,18.4,27.6,N/A,,Unknown,20,2013-07-26 19:15:00
2:35 PM,82.4,62.6,51,30.06,10.0,North,17.3,24.2,N/A,,Unknown,360,2013-07-26 19:35:00
2:55 PM,80.6,62.6,54,30.05,10.0,North,18.4,24.2,N/A,,Unknown,360,2013-07-26 19:55:00
3:15 PM,82.4,62.6,51,30.05,10.0,North,19.6,23.0,N/A,,Unknown,360,2013-07-26 20:15:00
3:35 PM,82.4,62.6,51,30.05,10.0,NNE,18.4,24.2,N/A,,Unknown,20,2013-07-26 20:35:00
3:55 PM,84.2,60.8,45,30.05,10.0,North,17.3,23.0,N/A,,Unknown,10,2013-07-26 20:55:00
4:15 PM,82.4,60.8,48,30.05,10.0,NNE,18.4,-,N/A,,Unknown,20,2013-07-26 21:15:00
4:35 PM,84.2,60.8,45,30.05,10.0,North,18.4,23.0,N/A,,Unknown,10,2013-07-26 21:35:00
4:55 PM,86.0,60.8,43,30.05,10.0,NNE,17.3,23.0,N/A,,Unknown,20,2013-07-26 21:55:00
5:15 PM,86.0,60.8,43,30.04,10.0,NNE,18.4,-,N/A,,Unknown,20,2013-07-26 22:15:00
5:35 PM,82.4,62.6,51,30.04,10.0,NNE,15.0,18.4,N/A,,Unknown,30,2013-07-26 22:35:00
5:55 PM,86.0,60.8,43,30.04,10.0,NNE,18.4,25.3,N/A,,Unknown,30,2013-07-26 22:55:00
6:15 PM,84.2,60.8,45,30.04,10.0,NE,20.7,24.2,N/A,,Unknown,40,2013-07-26 23:15:00
6:35 PM,84.2,60.8,45,30.04,10.0,NE,18.4,-,N/A,,Unknown,40,2013-07-26 23:35:00
6:55 PM,82.4,60.8,48,30.03,10.0,NNE,18.4,-,N/A,,Unknown,30,2013-07-26 23:55:00
7:15 PM,82.4,60.8,48,30.03,10.0,NNE,17.3,20.7,N/A,,Unknown,20,2013-07-27 00:15:00
7:35 PM,80.6,62.6,54,30.04,10.0,NNE,12.7,-,N/A,,Unknown,30,2013-07-27 00:35:00
7:55 PM,80.6,62.6,54,30.05,10.0,NNE,13.8,-,N/A,,Unknown,30,2013-07-27 00:55:00
8:15 PM,78.8,62.6,57,30.05,10.0,NNE,10.4,-,N/A,,Unknown,20,2013-07-27 01:15:00
8:35 PM,78.8,62.6,57,30.06,10.0,NNE,12.7,-,N/A,,Unknown,30,2013-07-27 01:35:00
8:55 PM,77.0,64.4,65,30.07,10.0,NNE,10.4,-,N/A,,Unknown,30,2013-07-27 01:55:00
9:15 PM,75.2,64.4,69,30.07,10.0,NNE,6.9,-,N/A,,Unknown,30,2013-07-27 02:15:00
9:35 PM,73.4,64.4,73,30.09,10.0,NNE,5.8,-,N/A,,Unknown,20,2013-07-27 02:35:00
9:55 PM,71.6,64.4,78,30.10,10.0,North,4.6,-,N/A,,Unknown,10,2013-07-27 02:55:00
10:15 PM,71.6,64.4,78,30.10,10.0,Calm,Calm,-,N/A,,Unknown,0,2013-07-27 03:15:00
10:35 PM,71.6,64.4,78,30.11,10.0,Calm,Calm,-,N/A,,Unknown,0,2013-07-27 03:35:00
10:55 PM,71.6,64.4,78,30.11,10.0,NNW,4.6,-,N/A,,Unknown,340,2013-07-27 03:55:00
11:15 PM,69.8,64.4,83,30.11,10.0,NNW,3.5,-,N/A,,Unknown,330,2013-07-27 04:15:00
11:35 PM,69.8,64.4,83,30.12,10.0,NW,3.5,-,N/A,,Unknown,320,2013-07-27 04:35:00
11:55 PM,69.8,64.4,83,30.12,10.0,Calm,Calm,-,N/A,,Unknown,0,2013-07-27 04:55:00